Weather History for KBLU - November, 2013

Change the Weather History Date:

Tuesday, November 12, 2013

  Actual Average Record
Temperature  
Mean Temperature 56 °F -  
Max Temperature 61 °F 49 °F 68 °F (1974)
Min Temperature 52 °F 36 °F 19 °F (1985)
Degree Days  
Heating Degree Days 8    
Growing Degree Days 6 (Base 50)    
Moisture  
Dew Point 22 °F    
Average Humidity 27    
Maximum Humidity 44    
Minimum Humidity 18    
Precipitation  
Precipitation 0.00 in - - ()
Sea Level Pressure  
Sea Level Pressure 30.21 in    
Wind  
Wind Speed 4 mph (ESE)    
Max Wind Speed 7 mph    
Max Gust Speed -    
Visibility 10 miles    
Events      
Averages and records for this station are not official NWS values.
T = Trace of Precipitation, MM = Missing Value Source: NWS Daily Summary

Daily Weather History Graph

Daily Weather History Graph

Search for Another Location

Airport or City:

Trip Planner

Search our weather history database for the weather conditions in past years. The results will help you decide how hot, cold, wet, or windy it might be!

Date:

Astronomy

Nov. 12, 2013 Rise Set
Actual Time 6:43 AM PST 4:50 PM PST
Civil Twilight 6:14 AM PST 5:18 PM PST
Nautical Twilight 5:42 AM PST 5:50 PM PST
Astronomical Twilight 5:10 AM PST 6:22 PM PST
Moon 2:05 PM PST (11/12) 1:40 AM PST (11/12)
Length of Visible Light 11h 03m
Length of Day
10h 06m
Waxing Gibbous, 77% of the Moon is Illuminated
Nov 12
Waxing Gibbous
Nov 17
Full
Nov 25
Last Quarter
Dec 2
New
Dec 9
First Quarter

Hourly Weather History & Observations

Time (PST) Temp. Dew Point Humidity Pressure Visibility Wind Dir Wind Speed Gust Speed Precip Events Conditions
12:52 AM 55.9 °F 12.9 °F 18% 30.14 in 10.0 mi SE 6.9 mph - N/A   Clear
1:52 AM 55.0 °F 12.0 °F 18% 30.14 in 10.0 mi ESE 3.5 mph - N/A   Clear
2:52 AM 55.9 °F 12.0 °F 18% 30.14 in 10.0 mi SE 4.6 mph - N/A   Overcast
3:52 AM 55.9 °F 12.9 °F 18% 30.17 in 10.0 mi South 5.8 mph - N/A   Overcast
4:52 AM 52.0 °F 17.1 °F 25% 30.22 in 10.0 mi ESE 4.6 mph - N/A   Overcast
5:52 AM 55.9 °F 14.0 °F 19% 30.20 in 10.0 mi SSE 4.6 mph - N/A   Scattered Clouds
6:52 AM 55.0 °F 14.0 °F 20% 30.21 in 10.0 mi East 4.6 mph - N/A   Overcast
7:52 AM 55.9 °F 17.1 °F 22% 30.23 in 10.0 mi ESE 3.5 mph - N/A   Overcast
8:52 AM 55.9 °F 19.9 °F 25% 30.25 in 10.0 mi SE 4.6 mph - N/A   Overcast
9:52 AM 57.9 °F 25.0 °F 28% 30.25 in 10.0 mi North - - N/A   Overcast
10:52 AM 57.9 °F 30.0 °F 35% 30.25 in 10.0 mi Calm Calm - N/A   Overcast
11:52 AM 59.0 °F 30.0 °F 33% 30.23 in 10.0 mi East 3.5 mph - N/A   Overcast
12:52 PM 60.1 °F 27.0 °F 28% 30.20 in 10.0 mi East 3.5 mph - N/A   Overcast
1:52 PM 61.0 °F 28.0 °F 29% 30.19 in 10.0 mi Calm Calm - N/A   Overcast
2:52 PM 59.0 °F 33.1 °F 38% 30.21 in 10.0 mi WSW 5.8 mph - N/A   Overcast
3:52 PM 57.9 °F 32.0 °F 37% 30.20 in 10.0 mi Calm Calm - N/A   Overcast
4:52 PM 55.9 °F 34.0 °F 44% 30.23 in 10.0 mi NE 4.6 mph - N/A   Overcast
5:52 PM 55.9 °F 28.9 °F 36% 30.22 in 10.0 mi NE 3.5 mph - N/A   Overcast
6:52 PM 55.9 °F 21.9 °F 27% 30.22 in 10.0 mi ENE 3.5 mph - N/A   Overcast
7:52 PM 55.9 °F 21.9 °F 27% 30.22 in 10.0 mi East 3.5 mph - N/A   Mostly Cloudy
8:52 PM 57.0 °F 21.9 °F 26% 30.22 in 10.0 mi ESE 3.5 mph - N/A   Mostly Cloudy
9:52 PM 57.0 °F 23.0 °F 27% 30.22 in 10.0 mi Calm Calm - N/A   Partly Cloudy
10:52 PM 57.0 °F 24.1 °F 28% 30.21 in 10.0 mi Calm Calm - N/A   Clear
11:52 PM 55.0 °F 25.0 °F 31% 30.22 in 10.0 mi Calm Calm - N/A   Clear